Flag for Germany Weather past 2 weeks in Sankt Ingbert, Saarland, Germany

Now
66 °F

Scattered clouds.


Feels Like: 66 °F
Forecast: 56 / 74 °F
Wind: 3 mph from Northeast

Location: Saarbruecken / Ensheim

Current Time: Jul 25, 2014 at 11:18:12 AM

Latest Report: Jul 25, 2014 at 10:00 AM


Visibility: 25 mi

Pressure: 29.92 "Hg

Humidity: 75%

Dew point: 58 °F

Location of Sankt IngbertLocation

Historic Weather in Sankt Ingbert — Graph

°F

Sankt Ingbert temperature yesterday

Maximum temperature yesterday: 79 °F (at 5:00 PM)
Minimum temperature yesterday: 61 °F (at 10:00 PM)
Average temperature yesterday: 71 °F

Past Weeks' High & Low Weather Summary

 TemperatureHumidityPressure
High90 °F (Jul 19, 3:00 PM)98% (Jul 11, 6:00 AM)30.20 "Hg (Jul 11, 6:00 AM)
Low54 °F (Jul 15, 6:00 AM)25% (Jul 18, 7:00 PM)29.80 "Hg (Jul 10, 10:00 AM)
Average68 °F71%29.96 "Hg
* Reported Jul 10 10:00 AM — Jul 25 10:00 AM, Sankt Ingbert, Weather by CustomWeather, © 2014

Note: Actual official high and low records may vary slightly from our data, if they occured in-between our weather recording intervals... More about our weather records

Advertising

Sankt Ingbert weather history for previous 24 hours

 ConditionsComfort  
Time TempWeatherWind HumidityBarometerVisibility
10:00 AM
Jul 25
66 °FScattered clouds.3 mph75%29.92 "Hg25 mi
9:00 AM64 °FScattered clouds.5 mph78%29.92 "Hg25 mi
8:00 AM61 °FPartly sunny.5 mph86%29.93 "Hg25 mi
7:00 AM59 °FPartly sunny.3 mph89%29.94 "Hg25 mi
6:00 AM57 °FScattered clouds.3 mph90%29.93 "Hg25 mi
5:00 AM58 °FPassing clouds.5 mph89%29.92 "Hg31 mi
4:00 AM59 °FPassing clouds.3 mph85%29.92 "Hg37 mi
3:00 AM59 °FClear.5 mph86%29.93 "Hg37 mi
2:00 AM57 °FClear.2 mph94%29.94 "Hg37 mi
1:00 AM59 °FPassing clouds.2 mph86%29.93 "Hg37 mi
12:00 AM61 °FLight rain. Overcast.2 mph89%29.94 "Hg37 mi
11:00 PM
Jul 24
61 °FThundershowers. Overcast.3 mph83%29.96 "Hg37 mi
10:00 PM61 °FThundershowers. Overcast.3 mph80%29.95 "Hg31 mi
9:00 PM67 °FThunderstorms. Overcast.6 mph53%29.90 "Hg43 mi
8:00 PM69 °FOvercast.9 mph52%29.90 "Hg37 mi
7:00 PM78 °FPartly sunny.3 mph37%29.85 "Hg37 mi
6:00 PM78 °FPartly sunny.2 mph32%29.86 "Hg37 mi
5:00 PM79 °FPartly sunny.2 mph32%29.87 "Hg37 mi
4:00 PM78 °FOvercast.2 mph37%29.87 "Hg34 mi
3:00 PM78 °FPartly sunny.5 mph39%29.88 "Hg31 mi
2:00 PM77 °FScattered clouds.3 mph32%29.89 "Hg31 mi
1:00 PM79 °FScattered clouds.5 mph34%29.90 "Hg31 mi
12:00 PM77 °FPassing clouds.3 mph43%29.90 "Hg31 mi
11:00 AM74 °FPassing clouds.5 mph51%29.90 "Hg31 mi
Weather by CustomWeather, © 2014

See weather overviewHow to use our weather pages